{"data":{"norad_id":63924,"epoch":"2026-05-24T16:26:17.988288Z","epoch_age_seconds":92498,"freshness":"FRESH","line1":"1 63924U 25097A   26144.68493042 -.00000284  00000+0  00000+0 0  9993","line2":"2 63924   3.3253 317.0851 0001566 256.3100  56.7031  1.00276028  3902","mean_motion":1.00276028,"eccentricity":0.0001566,"inclination_deg":3.3253,"raan_deg":317.0851,"arg_perigee_deg":256.31,"mean_anomaly_deg":56.7031,"bstar":0,"rev_number":390,"period_min":1436.0361381685,"perigee_km":35778.802725446,"apogee_km":35792.008346968,"semimajor_km":42163.542536207,"source":"CELESTRAK","updated_at":"2026-05-25T13:38:14.153616Z"}}